Weather History for KIPL - October, 2014

Change the Weather History Date:

Tuesday, October 7, 2014

  Actual Average Record
Temperature  
Mean Temperature 82 °F -  
Max Temperature 90 °F 92 °F 105 °F (1980)
Min Temperature 73 °F 65 °F 51 °F (2007)
Cooling Degree Days 17    
Growing Degree Days 32 (Base 50)    
Moisture  
Dew Point 63 °F    
Average Humidity 58    
Maximum Humidity 79    
Minimum Humidity 30    
Precipitation  
Precipitation 0.00 in - - ()
Sea Level Pressure  
Sea Level Pressure 29.86 in    
Wind  
Wind Speed 5 mph (South)    
Max Wind Speed 22 mph    
Max Gust Speed 28 mph    
Visibility 10 miles    
Events Rain    
Averages and records for this station are not official NWS values.
T = Trace of Precipitation, MM = Missing Value Source: NWS Daily Summary

Daily Weather History Graph

Daily Weather History Graph

Search for Another Location

Airport or City:

Trip Planner

Search our weather history database for the weather conditions in past years. The results will help you decide how hot, cold, wet, or windy it might be!

Date:

Astronomy

Oct. 07, 2014 Rise Set
Actual Time 6:40 AM PDT 6:18 PM PDT
Civil Twilight 6:15 AM PDT 6:43 PM PDT
Nautical Twilight 5:47 AM PDT 7:12 PM PDT
Astronomical Twilight 5:18 AM PDT 7:40 PM PDT
Moon 5:56 PM PDT (10/7) 5:45 AM PDT (10/7)
Length of Visible Light 12h 27m
Length of Day
11h 38m
Waxing Gibbous, 99% of the Moon is Illuminated
Oct 7
Waxing Gibbous
Oct 8
Full
Oct 15
Last Quarter
Oct 23
New
Oct 30
First Quarter

Hourly Weather History & Observations

Time (PDT) Temp. Heat Index Dew Point Humidity Pressure Visibility Wind Dir Wind Speed Gust Speed Precip Events Conditions
12:53 AM 80.1 °F 81.1 °F 61.0 °F 52% 29.83 in 10.0 mi Calm Calm - N/A   Scattered Clouds
1:53 AM 81.0 °F 81.7 °F 61.0 °F 50% 29.81 in 10.0 mi Variable 3.5 mph - N/A   Unknown
2:53 AM 81.0 °F 81.9 °F 62.1 °F 52% 29.82 in 10.0 mi Calm Calm - N/A   Scattered Clouds
3:53 AM 78.1 °F - 66.0 °F 66% 29.81 in 10.0 mi Calm Calm - N/A   Unknown
4:53 AM 79.0 °F - 68.0 °F 69% 29.82 in 10.0 mi Calm Calm - N/A   Unknown
5:53 AM 79.0 °F - 71.1 °F 77% 29.84 in 10.0 mi SE 11.5 mph - N/A   Unknown
6:53 AM 79.0 °F - 72.0 °F 79% 29.84 in 10.0 mi SSW 4.6 mph - N/A   Unknown
7:53 AM 78.1 °F - 66.9 °F 68% 29.86 in 10.0 mi NW 4.6 mph - 0.00 in   Unknown
8:53 AM 79.0 °F - 70.0 °F 74% 29.89 in 10.0 mi ENE 3.5 mph - N/A   Unknown
9:53 AM 81.0 °F 85.8 °F 73.0 °F 77% 29.90 in 10.0 mi SSE 8.1 mph - N/A   Partly Cloudy
10:53 AM 84.0 °F 89.0 °F 71.1 °F 65% 29.90 in 10.0 mi SW 8.1 mph - N/A   Mostly Cloudy
11:53 AM 86.0 °F 87.6 °F 64.9 °F 49% 29.89 in 10.0 mi SE 4.6 mph - 0.00 in Rain Light Rain
12:53 PM 86.0 °F 88.2 °F 66.0 °F 51% 29.87 in 10.0 mi SSW 4.6 mph - 0.00 in   Mostly Cloudy
1:53 PM 89.1 °F 88.0 °F 57.9 °F 35% 29.86 in 10.0 mi SSE 10.4 mph - N/A   Scattered Clouds
2:53 PM 88.0 °F 85.7 °F 53.1 °F 30% 29.86 in 10.0 mi SSE 21.9 mph 27.6 mph N/A   Partly Cloudy
3:53 PM 82.9 °F 82.0 °F 55.0 °F 38% 29.87 in 10.0 mi SSE 19.6 mph - N/A   Scattered Clouds
4:53 PM 80.1 °F 80.6 °F 57.9 °F 47% 29.87 in 10.0 mi SSE 11.5 mph - N/A   Clear
5:53 PM 78.1 °F - 59.0 °F 52% 29.86 in 10.0 mi SSW 9.2 mph - 0.00 in   Clear
6:53 PM 75.9 °F - 60.1 °F 58% 29.87 in 10.0 mi SSW 8.1 mph - N/A   Clear
7:53 PM 75.9 °F - 60.1 °F 58% 29.88 in 10.0 mi SSW 6.9 mph - N/A   Clear
8:53 PM 75.9 °F - 59.0 °F 56% 29.88 in 10.0 mi SSW 9.2 mph - N/A   Clear
9:53 PM 75.9 °F - 57.9 °F 54% 29.88 in 10.0 mi SSW 8.1 mph - N/A   Clear
10:53 PM 75.0 °F - 60.1 °F 60% 29.88 in 10.0 mi South 5.8 mph - N/A   Clear
11:53 PM 73.0 °F - 61.0 °F 66% 29.87 in 10.0 mi Calm Calm - N/A   Partly Cloudy